Home   Weather   India   Ballia   Past weeks
Flag for India

Past Weather in Ballia, Uttar Pradesh, India — Yesterday and Last 2 Weeks

Currently: 82 °F. Fog. (Weather station: Patna Airport, India). See more current weather

Past Weather in Ballia — Graph

°F

Ballia Temperature Yesterday

Maximum temperature yesterday: 88 °F (at 11:00 am)
Minimum temperature yesterday: 82 °F (at 5:00 am)
Average temperature yesterday: 85 °F

High & Low Weather Summary for the Past Weeks

 TemperatureHumidityPressure
High95 °F (Jul 28, 2:30 pm)100% (Jul 30, 2:00 am)29.77 "Hg (Jul 30, 2:00 am)
Low77 °F (Jul 28, 7:30 pm)60% (Aug 7, 2:30 pm)29.33 "Hg (Aug 9, 4:30 pm)
Average86 °F83%29.53 "Hg
* Reported Jul 27 9:30 pm — Aug 11 10:00 pm, Ballia. Weather by CustomWeather, © 2022

Note: Actual official high and low records may vary slightly from our data, if they occured in-between our weather recording intervals... More about our weather records

Ballia Weather History for the Previous 24 Hours

Scroll right to see more
 ConditionsComfort  
Time TempWeatherWind HumidityBarometerVisibility
10:00 pm
Thu, Aug 11
82 °FFog.6 mph89%29.53 "Hg2 mi
9:30 pm82 °FFog.7 mph89%29.50 "Hg2 mi
9:00 pm82 °FFog.7 mph89%29.50 "Hg2 mi
8:30 pm82 °FFog.8 mph89%29.50 "Hg2 mi
8:00 pm84 °FFog.8 mph84%29.47 "Hg2 mi
6:30 pm84 °FScattered clouds.6 mph89%29.45 "Hg2 mi
6:00 pm84 °FBroken clouds.5 mph89%29.45 "Hg2 mi
5:30 pm82 °FBroken clouds.7 mph89%29.45 "Hg2 mi
4:30 pm84 °FLight rain. Broken clouds.9 mph84%29.42 "Hg2 mi
3:30 pm91 °FScattered clouds.12 mph67%29.42 "Hg3 mi
3:00 pm91 °FScattered clouds.14 mph67%29.42 "Hg3 mi
2:30 pm90 °FBroken clouds.14 mph71%29.42 "Hg3 mi
2:00 pm90 °FBroken clouds.14 mph71%29.45 "Hg3 mi
1:30 pm90 °FBroken clouds.14 mph71%29.45 "Hg3 mi
12:30 pm88 °FBroken clouds.15 mph75%29.47 "Hg3 mi
11:30 am88 °FBroken clouds.16 mph75%29.47 "Hg3 mi
10:30 am88 °FBroken clouds.14 mph75%29.47 "Hg3 mi
10:00 am86 °FBroken clouds.17 mph79%29.47 "Hg3 mi
9:30 am86 °FBroken clouds.15 mph79%29.47 "Hg3 mi
8:30 am84 °FScattered clouds.17 mph79%29.47 "Hg3 mi
8:00 am84 °FScattered clouds.16 mph79%29.47 "Hg3 mi
7:30 am84 °FFog.12 mph79%29.45 "Hg2 mi
7:00 am84 °FFog.12 mph79%29.45 "Hg2 mi
6:30 am82 °FFog.9 mph84%29.45 "Hg2 mi
5:00 am82 °FFog.12 mph84%29.45 "Hg2 mi
4:30 am82 °FFog.12 mph84%29.45 "Hg2 mi
4:00 am82 °FFog.12 mph84%29.45 "Hg2 mi
3:30 am82 °FFog.12 mph84%29.45 "Hg2 mi
3:00 am82 °FFog.12 mph89%29.45 "Hg2 mi
2:30 am84 °FFog.9 mph84%29.45 "Hg2 mi
2:00 am84 °FFog.9 mph84%29.45 "Hg2 mi
1:30 am84 °FFog.9 mph84%29.45 "Hg2 mi
1:00 am84 °FFog.12 mph84%29.45 "Hg2 mi
12:30 am84 °FFog.12 mph84%29.45 "Hg2 mi
12:00 am84 °FPartly cloudy.12 mph84%29.45 "Hg2 mi
11:30 pm
Wed, Aug 10
84 °FPartly cloudy.13 mph84%29.47 "Hg2 mi
Weather by CustomWeather, © 2022

See weather overview